Regional Weather Roundup
Issued by NWS

Home | Current Version | Previous Version | Text Only | Print | Product List | Glossary Off
Versions: 1 2 3 4 5 6 7 8 9 10 11 12 13 14 15 16 17 18 19 20 21 22 23 24 25 26 27 28 29 30 31 32 33 34 35 36 37 38 39 40 41 42 43 44 45 46 47 48 49 50

000
ASUS43 KLOT 051708
RWRIL

ILLINOIS REGIONAL WEATHER ROUNDUP
NATIONAL WEATHER SERVICE CHICAGO/ROMEOVILLE IL
1200 PM CDT TUE MAY 05 2015

NOTE: "FAIR" INDICATES FEW OR NO CLOUDS BELOW 12,000 FEET WITH NO
SIGNIFICANT WEATHER AND/OR OBSTRUCTIONS TO VISIBILITY.

* THESE STATIONS ARE NOT UNDER NWS QUALITY CONTROL. THEY ALSO MAY NOT
  REPORT WEATHER SUCH AS PRECIPITATION OR FOG.

ILZ001-002-007-009-015-016-024-051800-
NORTHWEST ILLINOIS

CITY           SKY/WX    TMP DP  RH WIND       PRES   REMARKS
MOLINE         CLOUDY    66  60  81 E6        30.17S HAZE
STERLING*      CLOUDY    61  57  88 E12       30.20S
$$

ILZ003-004-008-010-011-017-018-051800-
NORTH CENTRAL ILLINOIS

CITY           SKY/WX    TMP DP  RH WIND       PRES   REMARKS
ROCKFORD       CLOUDY    54  51  90 NE13      30.26S
FREEPORT*      CLOUDY    53  51  95 E12       30.25S
ROCHELLE*      CLOUDY    57  56  95 NE12      30.23S FOG
DE KALB*       CLOUDY    54  53  96 NE12      30.24S FOG
PERU*          CLOUDY    63  62  96 NE9       30.19F FOG
$$

ILZ005-006-012>014-019>023-051800-
NORTHEAST ILLINOIS

CITY           SKY/WX    TMP DP  RH WIND       PRES   REMARKS
CHICAGO-OHARE  FOG       50  49  96 N10       30.24S VSB 1/2
CHICAGO-MIDWAY CLOUDY    59  53  80 N7        30.23S HAZE
AURORA         CLOUDY    58  54  86 NE9       30.22S FOG
LANSING*       CLOUDY    55  53  94 N3        30.23R FOG
JOLIET*        CLOUDY    61  58  92 NE5       30.21F FOG
WAUKEGAN       LGT RAIN  47  45  93 NE9       30.26S FOG
DUPAGE AIRPORT FOG       53  52  96 NE10      30.23S VSB 1
KANKAKEE*      CLOUDY    68  64  88 NE7       30.20S
WHEELING       CLOUDY    49  47  93 N9        30.27S FOG
MORRIS*        CLOUDY    61  59  92 NE6       30.18F FOG
ROMEOVILLE*    CLOUDY    57  55  94 NE7       30.22F FOG
NORTHERLY ISL    N/A     49  48  97 N8          N/A
$$

LMZ740>746-051800-
SOUTHERN LAKE MICHIGAN

STATION/POSITION SKY/WX   TEMP    WIND        PRES    VSBY  WAVE
                          AIR SEA DIR/SP/G                  HT/PER
                          (F)     (DEG/KT/KT) (MB)    (MI)  (FT/S)
HARRISON CRIB              46     330/  3/  4   N/A
BURNHAM HARBOR             50     350/  8/  8   N/A
CALUMET HARBOR             49     340/  6/  8   N/A
BURNS HARBOR               54     180/  6/ 14 1023.7R
MICHIGAN CITY              58     180/  5/  7   N/A
MICHIGAN CITY 6N           55 49  150/  2/  4   N/A           1/ 3
ST. JOSEPH                 54 49   90/  6/  6   N/A           1/ 3
$$

ILZ025>027-034>036-040-047-049-050-058-095>099-051800-
WEST-CENTRAL ILLINOIS

CITY           SKY/WX    TMP DP  RH WIND       PRES   REMARKS
QUINCY         SUNNY     77  60  55 SW9       30.16S
GALESBURG*     PTSUNNY   74  64  72 S3        30.16S
MACOMB*        MOSUNNY   75  64  68 SW5       30.17F
JACKSONVILLE*  MOSUNNY   83  57  39 W9G18     30.15F HX  83
PITTSFIELD*    SUNNY     81  57  43 SW10      30.16F HX  81
$$

ILZ028>032-037-038-041>044-048-051>054-059>061-051800-
CENTRAL ILLINOIS

CITY           SKY/WX    TMP DP  RH WIND       PRES   REMARKS
PONTIAC        MOSUNNY   73  68  85 CALM      30.18F
BLOOMINGTON    MOSUNNY   77  64  63 SW15      30.18F
DECATUR        MOSUNNY   82  58  43 SW14G20   30.17F HX  82
PEORIA         PTSUNNY   76  63  64 VRB5      30.16F
LACON*         PTSUNNY   73  64  71 E5        30.15F
LINCOLN*       MOSUNNY   82  62  49 SW6       30.14F HX  83
SPRINGFIELD    MOSUNNY   81  56  42 SW13G23   30.16F HX  81
TAYLORVILLE    MOSUNNY   81  54  39 SW14      30.17F HX  80
$$

ILZ033-039-045-046-055>057-062-063-051800-
EAST-CENTRAL ILLINOIS

CITY           SKY/WX    TMP DP  RH WIND       PRES   REMARKS
CHAMPAIGN      MOSUNNY   84  54  35 SW15G24   30.18F HX  83
DANVILLE*      MOSUNNY   77  58  51 SW12      30.16F
RANTOUL*       SUNNY     80  64  58 SW13G21   30.17F HX  81
MATTOON        MOSUNNY   79  53  40 SW8G20    30.19F
PARIS*         MOSUNNY   84  51  32 S15G21    30.20F HX  82
$$

ILZ079-100>102-051800-
SOUTHWEST ILLINOIS

CITY           SKY/WX    TMP DP  RH WIND       PRES   REMARKS
ALTON          MOSUNNY   81  57  44 SW9       30.18F HX  81
BELLEVILLE     MOSUNNY   82  60  47 VRB5      30.18F HX  83
CAHOKIA*       SUNNY     81  56  42 SW12G18   30.18F HX  81
SPARTA*        MOSUNNY   79  60  52 S10       30.21F HX  80
$$

ILZ064>066-069>071-074>076-080>082-084>086-088>090-092>094-051800-
SOUTH-CENTRAL ILLINOIS

CITY           SKY/WX    TMP DP  RH WIND       PRES   REMARKS
CARBONDALE     MOSUNNY   82  59  45 S12       30.21F HX  82
CAIRO*         SUNNY     82  60  47 S7        30.22F HX  82
EFFINGHAM*     SUNNY     82  45  27 S13G18    30.22F HX  80
MARION         MOSUNNY   81  57  44 SW9       30.23F HX  81
MT. VERNON     SUNNY    N/A N/A N/A SW12      30.22F
CENTRALIA*     MOSUNNY   84  51  32 SW14G22   30.21F HX  82
SALEM*         SUNNY     83  52  34 SW12G17   30.21F HX  81
METROPOLIS*    MOSUNNY   82  56  41 S7        30.23S HX  82
$$

ILZ067-068-072-073-078-083-087-091-051800-
SOUTHEAST ILLINOIS

CITY           SKY/WX    TMP DP  RH WIND       PRES   REMARKS
LAWRENCEVILLE  MOSUNNY   82  51  34 SW16      30.23F HX  81
FLORA*         MOSUNNY   81  51  35 SW13G20   30.22F HX  80
FAIRFIELD*     PTSUNNY   81  57  43 SW8       30.21F HX  81
HARRISBURG*    SUNNY     82  54  38 W7        30.24F HX  81
ROBINSON*      SUNNY     83  48  29 SW15G25   30.23F HX  81
CARMI*         SUNNY     82  49  31 SW9G20    30.23F HX  80
$$

ABBREVIATIONS USED IN REMARKS
   TC - TEMPERATURE IN CELSIUS
  WCI - WIND CHILL INDEX
   HX - HEAT INDEX
  VSB - VISIBILITY
$$




USA.gov is the U.S. government's official web portal to all federal, state and local government web resources and services.